| time (UTC) | temp F | wind direction | speed knots | gust knots | rain 1hr in | rain 24hr in | rain mn in | humidity % | barometer mb |
| 20260902221507 | 96 | 55 | 17.4 | 17.4 | 0.00 | 0.00 | 0.00 | 38 | 1012.0 |
| 20260902221007 | 98 | 84 | 11.3 | 11.3 | 0.00 | 0.00 | 0.00 | 37 | 1012.2 |
| 20260902220506 | 97 | 108 | 5.2 | 13.0 | 0.00 | 0.00 | 0.00 | 38 | 1012.3 |
| 20260902220006 | 96 | 93 | 1.7 | 15.6 | 0.00 | 0.00 | 0.00 | 38 | 1012.3 |
| 20260902215506 | 96 | 76 | 7.8 | 15.6 | 0.00 | 0.00 | 0.00 | 38 | 1012.4 |
| 20260902215006 | 96 | 96 | 6.1 | 13.9 | 0.00 | 0.00 | 0.00 | 38 | 1012.4 |
| 20260902214006 | 96 | 66 | 11.3 | 17.4 | 0.00 | 0.00 | 0.00 | 37 | 1012.5 |
| 20260902213006 | 96 | 82 | 10.4 | 14.8 | 0.00 | 0.00 | 0.00 | 38 | 1012.5 |
| 20260902212506 | 96 | 88 | 11.3 | 14.8 | 0.00 | 0.00 | 0.00 | 39 | 1012.5 |
| 20260902212006 | 95 | 92 | 13.0 | 18.2 | 0.00 | 0.00 | 0.00 | 39 | 1012.6 |
| 20260902211506 | 95 | 71 | 9.6 | 18.2 | 0.00 | 0.00 | 0.00 | 40 | 1012.7 |
| 20260902211006 | 96 | 31 | 11.3 | 14.8 | 0.00 | 0.00 | 0.00 | 39 | 1012.7 |
| 20260902210506 | 96 | 95 | 11.3 | 14.8 | 0.00 | 0.00 | 0.00 | 39 | 1012.7 |
| 20260902205006 | 96 | 45 | 13.0 | 13.0 | 0.00 | 0.00 | 0.00 | 39 | 1013.0 |
| 20260902204506 | 95 | 46 | 4.3 | 13.0 | 0.00 | 0.00 | 0.00 | 39 | 1013.1 |
| 20260902204006 | 95 | 62 | 10.4 | 13.0 | 0.00 | 0.00 | 0.00 | 40 | 1013.1 |
| 20260902203506 | 96 | 91 | 5.2 | 12.2 | 0.00 | 0.00 | 0.00 | 39 | 1013.2 |
| 20260902203006 | 95 | 48 | 6.1 | 15.6 | 0.00 | 0.00 | 0.00 | 39 | 1013.2 |
| 20260902202505 | 96 | 84 | 12.2 | 15.6 | 0.00 | 0.00 | 0.00 | 38 | 1013.2 |
| 20260902202006 | 95 | 40 | 7.8 | 14.8 | 0.00 | 0.00 | 0.00 | 40 | 1013.4 |
| 20260902201505 | 95 | 37 | 12.2 | 14.8 | 0.00 | 0.00 | 0.00 | 41 | 1013.4 |
| 20260902201005 | 95 | 47 | 11.3 | 14.8 | 0.00 | 0.00 | 0.00 | 41 | 1013.6 |
| 20260902200505 | 95 | 41 | 10.4 | 10.4 | 0.00 | 0.00 | 0.00 | 40 | 1013.6 |
| 20260902200005 | 96 | 71 | 8.7 | 9.6 | 0.00 | 0.00 | 0.00 | 39 | 1013.7 |
| 20260902195505 | 95 | 147 | 2.6 | 14.8 | 0.00 | 0.00 | 0.00 | 39 | 1013.7 |
| 20260902195005 | 95 | 51 | 9.6 | 15.6 | 0.00 | 0.00 | 0.00 | 40 | 1013.8 |
| 20260902194505 | 95 | 64 | 9.6 | 15.6 | 0.00 | 0.00 | 0.00 | 40 | 1013.9 |
| 20260902194035 | 95 | 105 | 7.8 | 13.0 | 0.00 | 0.00 | 0.00 | 39 | 1014.0 |
| 20260902193505 | 96 | 103 | 11.3 | 16.5 | 0.00 | 0.00 | 0.00 | 39 | 1013.9 |
| 20260902193005 | 94 | 114 | 2.6 | 16.5 | 0.00 | 0.00 | 0.00 | 40 | 1014.1 |
| 20260902192504 | 95 | 62 | 13.9 | 15.6 | 0.00 | 0.00 | 0.00 | 39 | 1014.2 |
| 20260902192004 | 94 | 57 | 2.6 | 10.4 | 0.00 | 0.00 | 0.00 | 41 | 1014.3 |
| 20260902191504 | 95 | 79 | 7.8 | 15.6 | 0.00 | 0.00 | 0.00 | 40 | 1014.4 |
| 20260902191005 | 95 | 56 | 7.0 | 15.6 | 0.00 | 0.00 | 0.00 | 41 | 1014.4 |
| 20260902190004 | 94 | 57 | 7.8 | 10.4 | 0.00 | 0.00 | 0.00 | 43 | 1014.6 |
| 20260902185505 | 94 | 116 | 7.0 | 9.6 | 0.00 | 0.00 | 0.00 | 42 | 1014.7 |
| 20260902185004 | 94 | 123 | 2.6 | 13.0 | 0.00 | 0.00 | 0.00 | 43 | 1014.8 |
| 20260902184504 | 93 | 79 | 4.3 | 13.0 | 0.00 | 0.00 | 0.00 | 43 | 1014.8 |
| 20260902184004 | 93 | 70 | 6.1 | 11.3 | 0.00 | 0.00 | 0.00 | 44 | 1014.9 |
| 20260902183504 | 93 | 103 | 9.6 | 13.0 | 0.00 | 0.00 | 0.00 | 45 | 1014.9 |
| 20260902183004 | 94 | 114 | 8.7 | 13.0 | 0.00 | 0.00 | 0.00 | 44 | 1015.0 |
| 20260902182004 | 93 | 136 | 6.1 | 10.4 | 0.00 | 0.00 | 0.00 | 44 | 1015.2 |
| 20260902181504 | 94 | 52 | 1.7 | 12.2 | 0.00 | 0.00 | 0.00 | 43 | 1015.3 |
| 20260902181004 | 92 | 65 | 4.3 | 12.2 | 0.00 | 0.00 | 0.00 | 45 | 1015.4 |
| 20260902180504 | 93 | 75 | 3.5 | 12.2 | 0.00 | 0.00 | 0.00 | 43 | 1015.5 |
| 20260902175004 | 93 | 76 | 10.4 | 13.0 | 0.00 | 0.00 | 0.00 | 44 | 1015.6 |
| 20260902174503 | 93 | 94 | 7.8 | 12.2 | 0.00 | 0.00 | 0.00 | 45 | 1015.8 |
| 20260902174003 | 93 | 89 | 5.2 | 10.4 | 0.00 | 0.00 | 0.00 | 45 | 1015.8 |
| 20260902173504 | 92 | 149 | 7.8 | 13.0 | 0.00 | 0.00 | 0.00 | 45 | 1015.8 |
| 20260902173003 | 92 | 87 | 7.0 | 13.0 | 0.00 | 0.00 | 0.00 | 46 | 1016.0 |
| 20260902172004 | 92 | 217 | 2.6 | 13.0 | 0.00 | 0.00 | 0.00 | 47 | 1016.1 |
| 20260902171503 | 91 | 56 | 5.2 | 13.0 | 0.00 | 0.00 | 0.00 | 49 | 1016.2 |
| 20260902171033 | 91 | 62 | 10.4 | 13.0 | 0.00 | 0.00 | 0.00 | 48 | 1016.2 |
| 20260902170503 | 92 | 86 | 9.6 | 9.6 | 0.00 | 0.00 | 0.00 | 47 | 1016.2 |
| 20260902170003 | 91 | 15 | 1.7 | 10.4 | 0.00 | 0.00 | 0.00 | 47 | 1016.4 |
| 20260902165503 | 91 | 100 | 6.1 | 10.4 | 0.00 | 0.00 | 0.00 | 47 | 1016.4 |
| 20260902165003 | 91 | 118 | 7.0 | 12.2 | 0.00 | 0.00 | 0.00 | 47 | 1016.4 |
| 20260902164504 | 91 | 41 | 8.7 | 12.2 | 0.00 | 0.00 | 0.00 | 47 | 1016.5 |
| 20260902164003 | 91 | 138 | 9.6 | 11.3 | 0.00 | 0.00 | 0.00 | 47 | 1016.5 |
| 20260902163503 | 92 | 135 | 6.1 | 8.7 | 0.00 | 0.00 | 0.00 | 46 | 1016.6 |
| 20260902163004 | 90 | 160 | 3.5 | 9.6 | 0.00 | 0.00 | 0.00 | 47 | 1016.7 |
| 20260902162504 | 91 | 133 | 7.8 | 9.6 | 0.00 | 0.00 | 0.00 | 47 | 1016.7 |
| 20260902162004 | 90 | 133 | 5.2 | 7.8 | 0.00 | 0.00 | 0.00 | 49 | 1016.7 |
| 20260902161503 | 91 | 160 | 5.2 | 7.8 | 0.00 | 0.00 | 0.00 | 48 | 1016.7 |
| 20260902161003 | 90 | 97 | 4.3 | 7.8 | 0.00 | 0.00 | 0.00 | 49 | 1016.7 |
| 20260902160503 | 90 | 83 | 0.9 | 6.1 | 0.00 | 0.00 | 0.00 | 50 | 1016.7 |
| 20260902160004 | 90 | 112 | 4.3 | 9.6 | 0.00 | 0.00 | 0.00 | 50 | 1016.8 |
| 20260902155503 | 89 | 111 | 5.2 | 9.6 | 0.00 | 0.00 | 0.00 | 49 | 1016.9 |
| 20260902155003 | 90 | 103 | 8.7 | 8.7 | 0.00 | 0.00 | 0.00 | 51 | 1016.8 |
| 20260902154503 | 90 | 90 | 7.0 | 8.7 | 0.00 | 0.00 | 0.00 | 51 | 1016.8 |
| 20260902153503 | 88 | 89 | 3.5 | 9.6 | 0.00 | 0.00 | 0.00 | 53 | 1016.8 |
| 20260902153003 | 88 | 118 | 9.6 | 9.6 | 0.00 | 0.00 | 0.00 | 53 | 1016.8 |
| 20260902152502 | 88 | 138 | 2.6 | 9.6 | 0.00 | 0.00 | 0.00 | 54 | 1016.8 |
| 20260902152003 | 87 | 126 | 4.3 | 9.6 | 0.00 | 0.00 | 0.00 | 55 | 1016.7 |
| 20260902151502 | 87 | 153 | 8.7 | 8.7 | 0.00 | 0.00 | 0.00 | 55 | 1016.6 |
| 20260902151003 | 88 | 157 | 8.7 | 8.7 | 0.00 | 0.00 | 0.00 | 54 | 1016.6 |
| 20260902150035 | 86 | 106 | 6.1 | 12.2 | 0.00 | 0.00 | 0.00 | 56 | 1016.6 |
| 20260902145502 | 86 | 207 | 0.9 | 7.8 | 0.00 | 0.00 | 0.00 | 57 | 1016.6 |
| 20260902145002 | 86 | 164 | 7.8 | 7.8 | 0.00 | 0.00 | 0.00 | 56 | 1016.6 |
| 20260902144032 | 86 | 118 | 5.2 | 8.7 | 0.00 | 0.00 | 0.00 | 58 | 1016.7 |
| 20260902143502 | 86 | 115 | 7.0 | 8.7 | 0.00 | 0.00 | 0.00 | 60 | 1016.6 |
| 20260902143032 | 85 | 106 | 3.5 | 9.6 | 0.00 | 0.00 | 0.00 | 61 | 1016.7 |
| 20260902142502 | 85 | 124 | 7.0 | 9.6 | 0.00 | 0.00 | 0.00 | 61 | 1016.7 |
| 20260902142002 | 84 | 126 | 3.5 | 8.7 | 0.00 | 0.00 | 0.00 | 62 | 1016.7 |
| 20260902141502 | 84 | 160 | 7.0 | 8.7 | 0.00 | 0.00 | 0.00 | 63 | 1016.7 |
| 20260902140502 | 84 | 147 | 7.0 | 8.7 | 0.00 | 0.00 | 0.00 | 63 | 1016.6 |
| 20260902140002 | 84 | 132 | 7.0 | 8.7 | 0.00 | 0.00 | 0.00 | 63 | 1016.6 |
| 20260902135502 | 84 | 131 | 6.1 | 8.7 | 0.00 | 0.00 | 0.00 | 64 | 1016.7 |
| 20260902135002 | 83 | 125 | 4.3 | 8.7 | 0.00 | 0.00 | 0.00 | 65 | 1016.7 |
| 20260902134502 | 83 | 153 | 5.2 | 7.8 | 0.00 | 0.00 | 0.00 | 65 | 1016.7 |
| 20260902133502 | 83 | 129 | 7.0 | 12.2 | 0.00 | 0.00 | 0.00 | 66 | 1016.7 |
| 20260902133002 | 83 | 133 | 7.0 | 7.8 | 0.00 | 0.00 | 0.00 | 66 | 1016.7 |
| 20260902132502 | 82 | 126 | 5.2 | 7.8 | 0.00 | 0.00 | 0.00 | 67 | 1016.7 |
| 20260902132002 | 82 | 108 | 4.3 | 5.2 | 0.00 | 0.00 | 0.00 | 68 | 1016.6 |
| 20260902131502 | 82 | 118 | 4.3 | 5.2 | 0.00 | 0.00 | 0.00 | 68 | 1016.5 |
| 20260902131002 | 82 | 110 | 2.6 | 5.2 | 0.00 | 0.00 | 0.00 | 69 | 1016.4 |
| 20260902130502 | 81 | 109 | 3.5 | 3.5 | 0.00 | 0.00 | 0.00 | 70 | 1016.3 |
| 20260902130002 | 81 | 148 | 2.6 | 2.6 | 0.00 | 0.00 | 0.00 | 70 | 1016.3 |
| 20260902125502 | 80 | 149 | 2.6 | 2.6 | 0.00 | 0.00 | 0.00 | 71 | 1016.3 |
| 20260902125032 | 80 | 150 | 1.7 | 1.7 | 0.00 | 0.00 | 0.00 | 71 | 1016.3 |
| 20260902124532 | 79 | 119 | 0.9 | 1.7 | 0.00 | 0.00 | 0.00 | 72 | 1016.3 |
| 20260902124002 | 79 | 194 | 0.9 | 1.7 | 0.00 | 0.00 | 0.00 | 73 | 1016.3 |
| 20260902123532 | 79 | 301 | 1.7 | 1.7 | 0.00 | 0.00 | 0.00 | 73 | 1016.3 |
| 20260902122501 | 79 | 99 | 1.7 | 4.3 | 0.00 | 0.00 | 0.00 | 74 | 1016.2 |
| 20260902122001 | 79 | 69 | 2.6 | 3.5 | 0.00 | 0.00 | 0.00 | 74 | 1016.2 |
| 20260902121031 | 78 | 65 | 2.6 | 3.5 | 0.00 | 0.00 | 0.00 | 75 | 1016.2 |
| 20260902120001 | 78 | 104 | 3.5 | 6.1 | 0.00 | 0.00 | 0.00 | 75 | 1016.1 |
| 20260902115532 | 78 | 105 | 4.3 | 6.1 | 0.00 | 0.00 | 0.00 | 75 | 1016.1 |
| 20260902114001 | 78 | 88 | 3.5 | 5.2 | 0.00 | 0.00 | 0.00 | 75 | 1016.0 |
| 20260902113501 | 78 | 94 | 4.3 | 6.1 | 0.00 | 0.00 | 0.00 | 75 | 1016.0 |
| 20260902113001 | 78 | 109 | 5.2 | 6.1 | 0.00 | 0.00 | 0.00 | 75 | 1016.0 |
| 20260902112502 | 78 | 106 | 5.2 | 6.1 | 0.00 | 0.00 | 0.00 | 74 | 1016.0 |
| 20260902112001 | 78 | 108 | 5.2 | 6.1 | 0.00 | 0.00 | 0.00 | 74 | 1016.0 |
| 20260902111001 | 79 | 118 | 4.3 | 5.2 | 0.00 | 0.00 | 0.00 | 74 | 1016.0 |
| 20260902110501 | 79 | 117 | 4.3 | 5.2 | 0.00 | 0.00 | 0.00 | 74 | 1016.0 |
| 20260902105501 | 79 | 109 | 5.2 | 5.2 | 0.00 | 0.00 | 0.00 | 73 | 1015.8 |
| 20260902105001 | 79 | 113 | 4.3 | 5.2 | 0.00 | 0.00 | 0.00 | 73 | 1015.7 |
| 20260902104501 | 79 | 121 | 5.2 | 5.2 | 0.00 | 0.00 | 0.00 | 73 | 1015.7 |
| 20260902104031 | 79 | 119 | 5.2 | 6.1 | 0.00 | 0.00 | 0.00 | 73 | 1015.6 |
| 20260902103500 | 79 | 112 | 4.3 | 6.1 | 0.00 | 0.00 | 0.00 | 72 | 1015.6 |
| 20260902102501 | 80 | 118 | 5.2 | 5.2 | 0.00 | 0.00 | 0.00 | 71 | 1015.6 |
| 20260902102030 | 80 | 129 | 4.3 | 6.1 | 0.00 | 0.00 | 0.00 | 71 | 1015.6 |
| 20260902101530 | 80 | 129 | 4.3 | 6.1 | 0.00 | 0.00 | 0.00 | 71 | 1015.6 |
| 20260902101030 | 80 | 123 | 4.3 | 6.1 | 0.00 | 0.00 | 0.00 | 71 | 1015.6 |
| 20260902100530 | 80 | 129 | 5.2 | 6.1 | 0.00 | 0.00 | 0.00 | 71 | 1015.6 |
| 20260902100031 | 80 | 126 | 5.2 | 6.1 | 0.00 | 0.00 | 0.00 | 70 | 1015.6 |
| 20260902095500 | 80 | 125 | 5.2 | 5.2 | 0.00 | 0.00 | 0.00 | 70 | 1015.6 |
| 20260902095000 | 80 | 120 | 5.2 | 5.2 | 0.00 | 0.00 | 0.00 | 70 | 1015.7 |
| 20260902094500 | 80 | 122 | 4.3 | 5.2 | 0.00 | 0.00 | 0.00 | 70 | 1015.7 |
| 20260902094000 | 81 | 122 | 4.3 | 4.3 | 0.00 | 0.00 | 0.00 | 70 | 1015.7 |
| 20260902093500 | 81 | 114 | 3.5 | 4.3 | 0.00 | 0.00 | 0.00 | 70 | 1015.7 |
| 20260902093000 | 81 | 138 | 2.6 | 2.6 | 0.00 | 0.00 | 0.00 | 69 | 1015.8 |
| 20260902092500 | 81 | 164 | 2.6 | 2.6 | 0.00 | 0.00 | 0.00 | 69 | 1015.8 |
| 20260902092000 | 81 | 177 | 2.6 | 2.6 | 0.00 | 0.00 | 0.00 | 69 | 1015.8 |
| 20260902091500 | 81 | 194 | 1.7 | 2.6 | 0.00 | 0.00 | 0.00 | 69 | 1015.8 |
| 20260902090500 | 81 | 161 | 2.6 | 4.3 | 0.00 | 0.00 | 0.00 | 68 | 1015.8 |
| 20260902090031 | 81 | 148 | 3.5 | 4.3 | 0.00 | 0.00 | 0.00 | 68 | 1015.8 |
| 20260902085529 | 82 | 167 | 3.5 | 4.3 | 0.00 | 0.00 | 0.00 | 67 | 1015.8 |
| 20260902085030 | 82 | 167 | 3.5 | 4.3 | 0.00 | 0.00 | 0.00 | 67 | 1015.8 |
| 20260902084530 | 82 | 182 | 4.3 | 4.3 | 0.00 | 0.00 | 0.00 | 67 | 1015.8 |
| 20260902084029 | 82 | 164 | 2.6 | 5.2 | 0.00 | 0.00 | 0.00 | 66 | 1015.8 |
| 20260902083459 | 82 | 167 | 4.3 | 5.2 | 0.00 | 0.00 | 0.00 | 66 | 1015.8 |
| 20260902083030 | 82 | 158 | 4.3 | 7.8 | 0.00 | 0.00 | 0.00 | 66 | 1015.8 |
| 20260902082531 | 83 | 170 | 4.3 | 7.8 | 0.00 | 0.00 | 0.00 | 65 | 1015.8 |
| 20260902081959 | 83 | 168 | 4.3 | 7.0 | 0.00 | 0.00 | 0.00 | 65 | 1015.8 |
| 20260902081459 | 83 | 161 | 4.3 | 7.0 | 0.00 | 0.00 | 0.00 | 65 | 1015.8 |
| 20260902080959 | 83 | 170 | 5.2 | 6.1 | 0.00 | 0.00 | 0.00 | 65 | 1015.8 |
| 20260902080459 | 83 | 168 | 5.2 | 6.1 | 0.00 | 0.00 | 0.00 | 64 | 1015.7 |
| 20260902075959 | 83 | 169 | 6.1 | 6.1 | 0.00 | 0.00 | 0.00 | 64 | 1015.8 |
| 20260902075459 | 83 | 163 | 5.2 | 7.0 | 0.00 | 0.00 | 0.00 | 64 | 1015.8 |
| 20260902074959 | 84 | 165 | 5.2 | 7.0 | 0.00 | 0.00 | 0.00 | 63 | 1015.7 |
| 20260902074459 | 84 | 170 | 5.2 | 7.8 | 0.00 | 0.00 | 0.00 | 63 | 1015.7 |
| 20260902074029 | 84 | 171 | 4.3 | 8.7 | 0.00 | 0.00 | 0.00 | 62 | 1015.7 |
| 20260902073459 | 84 | 166 | 6.1 | 11.3 | 0.00 | 0.00 | 0.00 | 62 | 1015.7 |
| 20260902072959 | 85 | 158 | 7.8 | 11.3 | 0.00 | 0.00 | 0.00 | 61 | 1015.7 |
| 20260902072459 | 85 | 169 | 9.6 | 11.3 | 0.00 | 0.00 | 0.00 | 61 | 1015.7 |
| 20260902071959 | 85 | 165 | 8.7 | 12.2 | 0.00 | 0.00 | 0.00 | 61 | 1015.7 |
| 20260902071529 | 85 | 159 | 7.8 | 12.2 | 0.00 | 0.00 | 0.00 | 61 | 1015.7 |
| 20260902070958 | 85 | 159 | 7.8 | 11.3 | 0.00 | 0.00 | 0.00 | 61 | 1015.7 |
| 20260902070458 | 85 | 149 | 10.4 | 11.3 | 0.00 | 0.00 | 0.00 | 60 | 1015.7 |
| 20260902070029 | 85 | 159 | 8.7 | 11.3 | 0.00 | 0.00 | 0.00 | 61 | 1015.7 |
| 20260902065529 | 85 | 143 | 8.7 | 11.3 | 0.00 | 0.00 | 0.00 | 61 | 1015.7 |
| 20260902064029 | 84 | 156 | 8.7 | 9.6 | 0.00 | 0.00 | 0.00 | 61 | 1015.7 |
| 20260902063528 | 84 | 155 | 7.0 | 9.6 | 0.00 | 0.00 | 0.00 | 61 | 1015.6 |
| 20260902063028 | 84 | 154 | 5.2 | 7.8 | 0.00 | 0.00 | 0.00 | 61 | 1015.6 |
| 20260902062528 | 84 | 161 | 5.2 | 7.8 | 0.00 | 0.00 | 0.00 | 61 | 1015.6 |
| 20260902062029 | 84 | 155 | 7.0 | 7.8 | 0.00 | 0.00 | 0.00 | 61 | 1015.6 |
| 20260902061531 | 84 | 170 | 4.3 | 7.8 | 0.00 | 0.00 | 0.00 | 61 | 1015.5 |
| 20260902060528 | 84 | 143 | 7.0 | 7.8 | 0.00 | 0.00 | 0.00 | 59 | 1015.4 |
| 20260902055457 | 84 | 158 | 5.2 | 5.2 | 0.00 | 0.00 | 0.00 | 59 | 1015.3 |
| 20260902055028 | 84 | 140 | 2.6 | 5.2 | 0.00 | 0.00 | 0.00 | 59 | 1015.3 |
| 20260902054527 | 85 | 123 | 2.6 | 6.1 | 0.00 | 0.00 | 0.00 | 58 | 1015.3 |
| 20260902054027 | 85 | 108 | 4.3 | 6.1 | 0.00 | 0.00 | 0.00 | 58 | 1015.3 |
| 20260902053457 | 86 | 113 | 3.5 | 4.3 | 0.00 | 0.00 | 0.00 | 57 | 1015.3 |
| 20260902052527 | 86 | 76 | 1.7 | 2.6 | 0.00 | 0.00 | 0.00 | 56 | 1015.2 |
| 20260902051457 | 86 | 94 | 1.7 | 2.6 | 0.00 | 0.00 | 0.00 | 56 | 1015.1 |
| 20260902050457 | 86 | 99 | 1.7 | 2.6 | 0.00 | 0.00 | 0.00 | 55 | 1015.1 |
| 20260902050027 | 86 | 101 | 1.7 | 2.6 | 0.00 | 0.00 | 0.00 | 55 | 1015.1 |
| 20260902045457 | 86 | 110 | 1.7 | 3.5 | 0.00 | 0.00 | 0.00 | 55 | 1015.1 |
| 20260902044456 | 87 | 89 | 2.6 | 3.5 | 0.00 | 0.00 | 0.00 | 54 | 1015.1 |
| 20260902044027 | 87 | 83 | 2.6 | 4.3 | 0.00 | 0.00 | 0.00 | 54 | 1015.1 |
| 20260902043456 | 87 | 74 | 3.5 | 4.3 | 0.00 | 0.00 | 0.00 | 54 | 1015.1 |
| 20260902043026 | 87 | 77 | 3.5 | 4.3 | 0.00 | 0.00 | 0.00 | 53 | 1015.1 |
| 20260902042026 | 87 | 57 | 2.6 | 3.5 | 0.00 | 0.00 | 0.00 | 53 | 1015.1 |
| 20260902040956 | 87 | 95 | 2.6 | 4.3 | 0.00 | 0.00 | 0.00 | 53 | 1015.0 |
| 20260902040526 | 87 | 90 | 2.6 | 4.3 | 0.00 | 0.00 | 0.00 | 52 | 1015.0 |
| 20260902040026 | 87 | 107 | 4.3 | 6.1 | 0.00 | 0.00 | 0.00 | 52 | 1015.0 |
| 20260902035526 | 88 | 82 | 2.6 | 7.0 | 0.00 | 0.00 | 0.00 | 51 | 1015.0 |
| 20260902035026 | 88 | 120 | 6.1 | 7.0 | 0.00 | 0.00 | 0.00 | 50 | 1015.0 |
| 20260902034526 | 89 | 123 | 5.2 | 6.1 | 0.00 | 0.00 | 0.00 | 50 | 1015.0 |
| 20260902034026 | 89 | 126 | 5.2 | 6.1 | 0.00 | 0.00 | 0.00 | 50 | 1015.1 |
| 20260902033026 | 89 | 145 | 3.5 | 3.5 | 0.00 | 0.00 | 0.00 | 50 | 1015.0 |
| 20260902032525 | 89 | 167 | 3.5 | 3.5 | 0.00 | 0.00 | 0.00 | 50 | 1015.0 |
| 20260902031956 | 89 | 171 | 2.6 | 3.5 | 0.00 | 0.00 | 0.00 | 50 | 1015.0 |
| 20260902031455 | 89 | 179 | 2.6 | 3.5 | 0.00 | 0.00 | 0.00 | 49 | 1014.9 |
| 20260902030955 | 89 | 189 | 2.6 | 3.5 | 0.00 | 0.00 | 0.00 | 49 | 1014.9 |
| 20260902030456 | 88 | 197 | 2.6 | 2.6 | 0.00 | 0.00 | 0.00 | 49 | 1014.8 |
| 20260902030025 | 89 | 199 | 2.6 | 3.5 | 0.00 | 0.00 | 0.00 | 49 | 1014.8 |
| 20260902025526 | 89 | 168 | 2.6 | 3.5 | 0.00 | 0.00 | 0.00 | 49 | 1014.7 |
| 20260902025025 | 89 | 170 | 2.6 | 4.3 | 0.00 | 0.00 | 0.00 | 49 | 1014.6 |
| 20260902024526 | 89 | 131 | 3.5 | 4.3 | 0.00 | 0.00 | 0.00 | 49 | 1014.5 |
| 20260902024028 | 89 | 128 | 4.3 | 4.3 | 0.00 | 0.00 | 0.00 | 49 | 1014.4 |
| 20260902023525 | 89 | 147 | 4.3 | 4.3 | 0.00 | 0.00 | 0.00 | 49 | 1014.4 |
| 20260902022955 | 88 | 156 | 4.3 | 4.3 | 0.00 | 0.00 | 0.00 | 49 | 1014.3 |
| 20260902022525 | 88 | 174 | 2.6 | 5.2 | 0.00 | 0.00 | 0.00 | 50 | 1014.2 |
| 20260902022025 | 88 | 141 | 4.3 | 5.2 | 0.00 | 0.00 | 0.00 | 49 | 1014.1 |
| 20260902021525 | 89 | 131 | 4.3 | 5.2 | 0.00 | 0.00 | 0.00 | 49 | 1014.1 |
| 20260902021025 | 89 | 127 | 5.2 | 6.1 | 0.00 | 0.00 | 0.00 | 48 | 1014.0 |
| 20260902020455 | 89 | 132 | 4.3 | 6.1 | 0.00 | 0.00 | 0.00 | 48 | 1013.9 |
| 20260902020025 | 89 | 140 | 4.3 | 6.1 | 0.00 | 0.00 | 0.00 | 48 | 1013.7 |
| 20260902015456 | 89 | 126 | 5.2 | 7.0 | 0.00 | 0.00 | 0.00 | 47 | 1013.6 |
| 20260902015026 | 89 | 128 | 5.2 | 7.8 | 0.00 | 0.00 | 0.00 | 47 | 1013.5 |
| 20260902013955 | 91 | 131 | 7.0 | 7.8 | 0.00 | 0.00 | 0.00 | 45 | 1013.4 |
| 20260902012954 | 91 | 135 | 7.0 | 8.7 | 0.00 | 0.00 | 0.00 | 44 | 1013.2 |
| 20260902012524 | 91 | 137 | 7.0 | 7.0 | 0.00 | 0.00 | 0.00 | 43 | 1013.3 |
| 20260902012024 | 92 | 131 | 6.1 | 7.0 | 0.00 | 0.00 | 0.00 | 42 | 1013.3 |
| 20260902011524 | 92 | 133 | 4.3 | 4.3 | 0.00 | 0.00 | 0.00 | 42 | 1013.2 |
| 20260902011024 | 92 | 122 | 4.3 | 5.2 | 0.00 | 0.00 | 0.00 | 42 | 1013.2 |
| 20260902010524 | 93 | 124 | 3.5 | 5.2 | 0.00 | 0.00 | 0.00 | 41 | 1013.2 |
| 20260902010024 | 93 | 122 | 4.3 | 5.2 | 0.00 | 0.00 | 0.00 | 41 | 1013.2 |
| 20260902005524 | 93 | 129 | 3.5 | 6.1 | 0.00 | 0.00 | 0.00 | 40 | 1013.2 |
| 20260902005024 | 94 | 137 | 4.3 | 7.8 | 0.00 | 0.00 | 0.00 | 40 | 1013.2 |
| 20260902004524 | 94 | 139 | 5.2 | 7.8 | 0.00 | 0.00 | 0.00 | 40 | 1013.2 |
| 20260902004024 | 94 | 124 | 5.2 | 7.8 | 0.00 | 0.00 | 0.00 | 39 | 1013.2 |
| 20260902003524 | 95 | 135 | 5.2 | 8.7 | 0.00 | 0.00 | 0.00 | 39 | 1013.2 |
| 20260902003024 | 95 | 145 | 6.1 | 8.7 | 0.00 | 0.00 | 0.00 | 39 | 1013.3 |
| 20260902002524 | 95 | 126 | 7.0 | 10.4 | 0.00 | 0.00 | 0.00 | 38 | 1013.3 |
| 20260902001954 | 96 | 144 | 6.1 | 10.4 | 0.00 | 0.00 | 0.00 | 37 | 1013.4 |
| 20260902001525 | 96 | 155 | 7.8 | 9.6 | 0.00 | 0.00 | 0.00 | 36 | 1013.4 |
| 20260902001024 | 96 | 135 | 7.8 | 11.3 | 0.00 | 0.00 | 0.00 | 36 | 1013.4 |
| 20260902000453 | 96 | 149 | 7.8 | 11.3 | 0.00 | 0.00 | 0.00 | 36 | 1013.5 |
| 20260902000024 | 96 | 126 | 7.8 | 11.3 | 0.00 | 0.00 | 0.00 | 37 | 1013.4 |
| 20260901235524 | 96 | 131 | 10.4 | 13.0 | 0.00 | 0.00 | 0.00 | 36 | 1013.4 |
| 20260901234953 | 96 | 134 | 9.6 | 13.0 | 0.00 | 0.00 | 0.00 | 36 | 1013.5 |
| 20260901234523 | 97 | 135 | 11.3 | 13.0 | 0.00 | 0.00 | 0.00 | 35 | 1013.5 |
| 20260901234023 | 96 | 131 | 8.7 | 14.8 | 0.00 | 0.00 | 0.00 | 35 | 1013.5 |
| 20260901233023 | 97 | 120 | 10.4 | 13.9 | 0.00 | 0.00 | 0.00 | 35 | 1013.6 |
| 20260901232454 | 97 | 148 | 7.8 | 12.2 | 0.00 | 0.00 | 0.00 | 34 | 1013.7 |
| 20260901232024 | 97 | 101 | 7.8 | 13.0 | 0.00 | 0.00 | 0.00 | 35 | 1013.7 |
| 20260901231523 | 97 | 110 | 8.7 | 13.0 | 0.00 | 0.00 | 0.00 | 34 | 1013.6 |
| 20260901231023 | 97 | 108 | 9.6 | 13.0 | 0.00 | 0.00 | 0.00 | 34 | 1013.7 |
| 20260901230023 | 97 | 98 | 6.1 | 13.0 | 0.00 | 0.00 | 0.00 | 34 | 1013.7 |
| 20260901225523 | 97 | 127 | 7.8 | 13.0 | 0.00 | 0.00 | 0.00 | 34 | 1013.7 |
| 20260901225023 | 97 | 102 | 8.7 | 11.3 | 0.00 | 0.00 | 0.00 | 34 | 1013.7 |
| 20260901224523 | 98 | 105 | 10.4 | 11.3 | 0.00 | 0.00 | 0.00 | 34 | 1013.7 |
| 20260901224023 | 98 | 152 | 6.1 | 16.5 | 0.00 | 0.00 | 0.00 | 34 | 1013.7 |
| 20260901223023 | 97 | 92 | 9.6 | 15.6 | 0.00 | 0.00 | 0.00 | 34 | 1013.7 |
| 20260901222523 | 98 | 138 | 8.7 | 15.6 | 0.00 | 0.00 | 0.00 | 34 | 1013.7 |